Flag for Russia Weather past 2 weeks in Orenburg, Russia

Now
52 °F

Sunny.


Feels Like: 50 °F
Forecast: 44 / 61 °F
Wind: 6 mph from Northwest

Location: Orenburg / Tsentralny

Current Time: Aug 31, 2015 at 9:00:59 PM

Latest Report: Aug 31, 2015 at 8:30 PM


Visibility: 10 mi

Pressure: 29.80 "Hg

Humidity: 54%

Dew point: 36 °F

Location of OrenburgLocation

Historic Weather in Orenburg — Graph

°F

Orenburg temperature yesterday

Maximum temperature yesterday: 68 °F (at 8:30 AM)
Minimum temperature yesterday: 54 °F (at 11:30 PM)
Average temperature yesterday: 62 °F

Past Weeks' High & Low Weather Summary

 TemperatureHumidityPressure
High84 °F (Aug 28, 3:30 PM)100% (Aug 18, 4:30 AM)30.12 "Hg (Aug 18, 4:30 AM)
Low41 °F (Aug 25, 4:30 AM)20% (Aug 28, 4:30 PM)29.50 "Hg (Aug 17, 11:00 AM)
Average60 °F59%29.90 "Hg
* Reported Aug 16 8:00 PM — Aug 31 8:00 PM, Orenburg, Weather by CustomWeather, © 2015

Note: Actual official high and low records may vary slightly from our data, if they occured in-between our weather recording intervals... More about our weather records

Advertising

Orenburg weather history for previous 24 hours

 ConditionsComfort  
Time TempWeatherWind HumidityBarometerVisibility
8:00 PM
Mon, Aug 31
55 °FSunny.8 mph44%29.80 "Hg10 mi
7:30 PM57 °FSunny.10 mph41%29.80 "Hg10 mi
7:00 PM59 °FSunny.10 mph39%29.80 "Hg10 mi
6:30 PM61 °FSunny.15 mph34%29.80 "Hg10 mi
6:00 PM59 °FMore clouds than sun.13 mph36%29.80 "HgN/A
5:30 PM61 °FMore clouds than sun.15 mph34%29.80 "HgN/A
5:00 PM61 °FMore clouds than sun.15 mph34%29.77 "HgN/A
4:30 PM61 °FMore clouds than sun.20 mph34%29.77 "HgN/A
4:00 PM63 °FBroken clouds.15 mph30%29.77 "HgN/A
3:30 PM61 °FBroken clouds.13 mph31%29.77 "HgN/A
3:00 PM61 °FBroken clouds.13 mph31%29.77 "HgN/A
2:30 PM59 °FBroken clouds.13 mph31%29.77 "HgN/A
2:00 PM59 °FBroken clouds.13 mph36%29.77 "HgN/A
1:30 PM59 °FBroken clouds.10 mph36%29.77 "HgN/A
1:00 PM59 °FPartly sunny.13 mph34%29.77 "HgN/A
12:30 PM57 °FPartly sunny.13 mph41%29.77 "HgN/A
12:00 PM57 °FPartly sunny.13 mph44%29.77 "HgN/A
11:30 AM55 °FScattered clouds.10 mph51%29.77 "HgN/A
11:00 AM54 °FPassing clouds.10 mph54%29.77 "HgN/A
10:30 AM52 °FPassing clouds.13 mph62%29.74 "HgN/A
10:00 AM52 °FPassing clouds.13 mph62%29.74 "HgN/A
9:30 AM50 °FScattered clouds.13 mph67%29.74 "HgN/A
9:00 AM48 °FScattered clouds.15 mph71%29.74 "HgN/A
8:30 AM48 °FScattered clouds.13 mph71%29.74 "HgN/A
8:00 AM46 °FPassing clouds.13 mph82%29.71 "HgN/A
7:30 AM46 °FPassing clouds.13 mph82%29.71 "HgN/A
7:00 AM48 °FPartly cloudy.13 mph76%29.68 "HgN/A
6:30 AM48 °FMostly cloudy.10 mph76%29.68 "HgN/A
6:00 AM48 °FMostly cloudy.13 mph82%29.68 "HgN/A
5:30 AM50 °FMostly cloudy.13 mph82%29.65 "HgN/A
5:00 AM50 °FMostly cloudy.8 mph88%29.65 "HgN/A
4:30 AM52 °FClear.13 mph88%29.62 "Hg10 mi
4:00 AM52 °FClear.10 mph88%29.62 "Hg10 mi
3:30 AM48 °FClear.8 mph94%29.62 "Hg10 mi
3:00 AM48 °FClear.6 mph87%29.59 "Hg10 mi
2:30 AM48 °FClear.6 mph94%29.59 "Hg10 mi
2:00 AM50 °FPassing clouds.6 mph88%29.59 "HgN/A
1:30 AM52 °FPassing clouds.6 mph88%29.59 "HgN/A
12:30 AM52 °FPassing clouds.3 mph88%29.59 "HgN/A
12:00 AM54 °FPassing clouds.3 mph88%29.59 "HgN/A
11:30 PM
Sun, Aug 30
54 °FPassing clouds.3 mph88%29.59 "HgN/A
11:00 PM55 °FPassing clouds.3 mph82%29.59 "HgN/A
10:30 PM57 °FPassing clouds.3 mph82%29.59 "HgN/A
10:00 PM59 °FScattered clouds.6 mph82%29.59 "HgN/A
9:30 PM61 °FScattered clouds.8 mph77%29.59 "HgN/A
9:00 PM61 °FScattered clouds.6 mph77%29.59 "HgN/A
Weather by CustomWeather, © 2015

See weather overviewHow to use our weather pages